Location: Fort Frances
(48.6170°N, 93.4170°W)
Time: 12:53:53
(UTC-05:00)

ISS - All Passes

Search period start: 29 July 2016 00:00
Search period end: 08 August 2016 00:00
Orbit: 401 x 403 km, 51.6° (Epoch: 29 July)

Date Brightness Start Highest point End Pass type
(mag) Time Alt. Az. Time Alt. Az. Time Alt. Az.
29 Jul - 01:08:18 10° WNW 01:11:30 50° N 01:14:42 10° E visible
29 Jul - 02:44:47 10° WNW 02:48:02 64° SSW 02:51:15 10° SE visible
29 Jul - 04:22:23 10° WSW 04:23:56 13° SW 04:25:29 10° SSW night (unlit)
29 Jul - 21:02:50 10° SSW 21:05:33 25° SE 21:08:18 10° E daylight
29 Jul - 22:38:29 10° WSW 22:41:45 78° NNW 22:45:01 10° ENE visible
30 Jul - 00:15:15 10° WNW 00:18:26 47° N 00:21:36 10° ENE visible
30 Jul - 01:51:48 10° WNW 01:55:04 86° NNE 01:58:20 10° ESE visible
30 Jul - 03:28:38 10° W 03:31:11 21° SW 03:33:44 10° SSE night (unlit)
30 Jul - 20:10:49 10° S 20:12:47 15° SE 20:14:45 10° E daylight
30 Jul - 21:45:30 10° WSW 21:48:45 73° SSE 21:52:01 10° ENE visible
30 Jul - 23:22:09 10° W 23:25:19 48° N 23:28:30 10° ENE visible
31 Jul - 00:58:47 10° WNW 01:02:02 64° NNE 01:05:16 10° E visible
31 Jul - 02:35:21 10° W 02:38:22 34° SSW 02:41:21 10° SSE night (unlit)
31 Jul - 20:52:41 10° SW 20:55:49 46° SSE 20:58:57 10° ENE daylight
31 Jul - 22:29:01 10° W 22:32:13 56° NNW 22:35:27 10° ENE visible
01 Aug - 00:05:45 10° WNW 00:08:57 52° N 00:12:09 10° E visible
01 Aug - 01:42:14 10° WNW 01:45:27 56° SSW 01:48:38 10° SE visible
01 Aug - 03:20:18 10° WSW 03:21:17 11° SW 03:22:16 10° SSW night (unlit)
01 Aug - 20:00:04 10° SSW 20:02:55 28° SE 20:05:46 10° E daylight
01 Aug - 21:35:54 10° WSW 21:39:09 72° NNW 21:42:25 10° ENE visible
01 Aug - 23:12:40 10° WNW 23:15:50 47° N 23:19:00 10° ENE visible
02 Aug - 00:49:11 10° WNW 00:52:27 86° SSW 00:55:43 10° ESE visible
02 Aug - 02:26:09 10° W 02:28:31 19° SW 02:30:53 10° S night (unlit)
02 Aug - 19:07:50 10° S 19:10:04 17° SE 19:12:19 10° E daylight
02 Aug - 20:42:51 10° WSW 20:46:06 81° SSE 20:49:22 10° ENE daylight
02 Aug - 22:19:32 10° W 22:22:42 47° N 22:25:53 10° ENE visible
02 Aug - 23:56:08 10° WNW 23:59:24 69° NNE 00:02:39 10° E visible
03 Aug - 01:32:45 10° W 01:35:40 30° SW 01:38:34 10° SSE visible
03 Aug - 18:17:01 10° SE 18:17:17 10° SE 18:17:34 10° SE daylight
03 Aug - 19:49:55 10° SW 19:53:06 52° SSE 19:56:18 10° ENE daylight
03 Aug - 21:26:21 10° W 21:29:34 53° N 21:32:46 10° ENE visible
03 Aug - 23:03:03 10° WNW 23:06:17 54° N 23:09:29 10° E visible
04 Aug - 00:39:33 10° WNW 00:42:44 49° SSW 00:45:54 10° SE visible
04 Aug - 18:57:12 10° SSW 19:00:09 32° SE 19:03:06 10° E daylight
04 Aug - 20:33:11 10° W 20:36:26 66° NNW 20:39:42 10° ENE daylight
04 Aug - 22:09:57 10° WNW 22:13:08 48° N 22:16:19 10° E visible
04 Aug - 23:46:27 10° WNW 23:49:43 78° SSW 23:52:58 10° ESE visible
05 Aug - 01:23:35 10° W 01:25:43 16° SW 01:27:51 10° S visible
05 Aug - 18:04:48 10° S 18:07:15 20° SE 18:09:42 10° E daylight
05 Aug - 19:40:05 10° WSW 19:43:20 89° S 19:46:37 10° ENE daylight
05 Aug - 21:16:47 10° WNW 21:19:57 47° N 21:23:08 10° ENE visible
05 Aug - 22:53:21 10° WNW 22:56:38 74° NNE 22:59:53 10° ESE visible
06 Aug - 00:30:02 10° W 00:32:51 27° SW 00:35:39 10° SSE visible
06 Aug - 17:13:09 10° SSE 17:14:25 12° SE 17:15:40 10° ESE daylight
06 Aug - 18:47:04 10° SW 18:50:17 59° SSE 18:53:31 10° ENE daylight
06 Aug - 20:23:34 10° W 20:26:46 51° N 20:29:59 10° ENE daylight
06 Aug - 22:00:16 10° WNW 22:03:30 57° NNE 22:06:43 10° E visible
06 Aug - 23:36:46 10° WNW 23:39:54 43° SSW 23:43:00 10° SE visible
07 Aug - 17:54:14 10° SW 17:57:16 36° SSE 18:00:18 10° ENE daylight
07 Aug - 19:30:22 10° W 19:33:36 62° NNW 19:36:51 10° ENE daylight
07 Aug - 21:07:07 10° WNW 21:10:18 49° N 21:13:29 10° E daylight
07 Aug - 22:43:36 10° WNW 22:46:51 70° SSW 22:50:06 10° ESE visible
